Location: ????????
(55.6189°N, 38.3031°E)
Time: 23:27:44
(UTC+00:00)

SL-16 R/B - Pass Details

Date: 01 March 2020
Orbit: 843 x 847 km, 71.0° (Epoch: 01 April)

Event Time Altitude Azimuth Distance (km) Brightness Sun altitude
Exits shadow 01:44:53 27° 307° (NW) 1,585 3.3 -22.0°
Maximum altitude 01:46:02 29° 328° (NNW) 1,516 3.4 -21.9°
Drops below altitude 10° 01:50:56 10° 27° (NNE) 2,477 5.2 -21.2°
Sets 01:53:44 0° 39° (NE) 3,414 6.3 -20.8°
